[[{"header":{"parameterUnit":"m.s-1","parameterCategory":1,"la1":30.2991,"la2":30.254,"lo1":-89.0895,"lo2":-89.0444,"dy":0.0017,"dx":0.0017,"nx":28,"ny":28,"refTime":"2024-12-03T03:00:00:Z","depth":0,"parameterNumber":2,"parameterNumberName":"U-component_of_WINDS"},"data":[0,0,0,0,0,0,0,0,0,0,0,0,0,0,0,0,0,0,0,0,0,0,0,0,0,0,0,0,0,0,0,0,0,0,0,0,0,0,0,0,0,0,0,0,0,0,0,0,0,0,0,0,0,0,0,0,0,0,3.5761,3.5761,0,3.5812,3.5812,3.5813,3.5782,3.5781,3.5779,3.5778,3.5826,3.5829,3.5831,0,0,0,0,0,0,0,0,0,0,0,0,0,3.5631,3.5634,3.5761,3.5761,3.5762,3.5812,3.5812,3.5813,3.5782,3.5781,3.5779,3.5777,3.5825,3.5828,3.5832,0,0,0,0,0,0,0,0,0,0,0,0,0,3.5685,3.5634,3.5761,3.5753,3.5753,3.5812,3.5812,3.5813,3.5783,3.5781,3.5778,3.5776,3.5824,3.5828,3.5832,3.59,0,0,3.5844,3.5846,0,0,0,0,0,0,0,0,3.5682,3.569,3.5753,3.5753,3.5753,3.5789,3.5784,3.5842,3.5783,3.5771,3.5778,3.5775,3.5815,3.582,3.5834,3.5903,3.5905,3.5845,3.5847,3.5849,3.585,0,0,0,0,0,0,0,3.5678,3.5688,3.5781,3.5754,3.5754,3.5745,3.575,3.5795,3.5805,3.5772,3.577,3.5777,3.5815,3.583,3.5835,3.5905,3.5844,3.5848,3.585,3.5852,3.6029,3.6032,0,0,0,0,0,0,3.5676,3.5685,3.5779,3.5782,3.5712,3.5749,3.5755,3.5779,3.5804,3.5806,3.5779,3.5775,3.5825,3.583,3.5837,3.5916,3.5849,3.5852,3.5855,3.6027,3.603,3.6032,0,0,0,0,0,0,3.5673,3.5685,3.5777,3.5733,3.5744,3.5754,3.5781,3.5782,3.5797,3.5809,3.581,3.5793,3.5823,3.5831,3.5884,3.5917,3.5854,3.5858,3.6024,3.6028,3.6031,3.6076,0,0,0,0,0,0,3.567,3.5684,3.5711,3.5734,3.5747,3.5826,3.5783,3.5784,3.5804,3.58,3.5823,3.5824,3.5822,3.5879,3.5888,3.5921,3.5861,3.6021,3.6026,3.603,3.6071,3.608,3.6088,0,0,0,0,0,3.5665,3.5722,3.5713,3.5725,3.5781,3.5828,3.5835,3.5832,3.5807,3.5834,3.5841,3.5824,3.5912,3.5884,3.5895,3.593,3.6019,3.6025,3.603,3.6068,3.6079,3.6088,0,0,0,0,0,0,3.5702,3.5725,3.5715,3.5781,3.5803,3.5823,3.5856,3.5844,3.5872,3.5867,3.5861,3.5866,3.5921,3.5931,3.59,3.5995,3.5962,3.5969,3.5987,3.5997,3.6006,3.6001,3.5864,0,0,0,0,0,3.5718,3.5755,3.5773,3.5829,3.584,3.5846,3.5867,3.5862,3.5884,3.5893,3.5904,3.5925,3.5957,3.5978,3.6009,3.6073,3.6076,3.6102,3.6111,3.6117,3.6123,3.6155,3.6166,3.605,3.605,3.6049,0,0,3.5751,3.5768,3.5792,3.5837,3.5853,3.5889,3.5854,3.5895,3.5922,3.5899,3.5949,3.5958,3.5981,3.6039,3.6066,3.6049,3.6156,3.6124,3.6129,3.6132,3.6162,3.6173,3.6182,3.6053,3.6052,3.6052,0,0,3.5829,3.5847,3.5894,3.5911,3.5937,3.594,3.5952,3.5973,3.5978,3.603,3.6012,3.6043,3.6099,3.6115,3.613,3.6213,3.6197,3.6223,3.6266,3.6297,3.6306,3.6314,3.6341,3.6351,3.623,3.623,3.623,0,3.5866,3.5922,3.592,3.5962,3.598,3.5963,3.6009,3.6025,3.6059,3.6072,3.6053,3.6122,3.6136,3.6196,3.6216,3.6231,3.6241,3.622,3.6305,3.6313,3.6321,3.6346,3.6356,3.6232,3.6232,3.6232,3.6232,0,3.5964,3.6004,3.6039,3.6072,3.6095,3.6139,3.6142,3.6165,3.6159,3.6164,3.6214,3.6231,3.6263,3.6277,3.6272,3.6337,3.6325,3.6306,3.6272,3.6335,3.6358,3.6368,3.6236,3.6235,3.6235,3.6234,0,0,3.6066,3.6098,3.611,3.6124,3.615,3.6179,3.6222,3.6254,3.6273,3.6297,3.633,3.6377,3.6359,3.6377,3.6373,3.6401,3.6461,3.6378,3.6378,3.639,3.653,3.6542,3.6554,3.6452,3.6454,3.6455,3.6527,0,3.6143,3.6218,3.6217,3.6285,3.6319,3.6302,3.6339,3.6357,3.6363,3.6391,3.6397,3.643,3.6405,3.6415,3.6442,3.6448,3.6489,3.6443,3.648,3.6481,3.6472,3.6566,3.658,3.6647,3.6537,3.6538,3.654,0,3.6243,3.6271,3.6343,3.6362,3.6376,3.6409,3.6437,3.6466,3.6486,3.6487,3.6507,3.6498,3.6538,3.6504,3.6558,3.6527,3.6542,3.6547,3.655,3.6551,3.6512,3.6567,3.6669,3.6678,3.6555,3.6553,3.6552,0,3.6306,3.6361,3.641,3.6423,3.6448,3.6471,3.6482,3.65,3.6519,3.6543,3.6555,3.6584,3.6599,3.662,3.6618,3.6595,3.6672,3.6639,3.6672,3.6672,3.6687,3.6686,3.679,3.6702,3.6702,3.6702,3.6701,0,3.6391,3.6435,3.6439,3.6469,3.6517,3.6514,3.6561,3.657,3.6586,3.6615,3.6603,3.6631,3.6628,3.6656,3.6655,3.6698,3.6705,3.6706,3.6704,3.6705,3.6705,3.6713,3.6707,3.6704,3.6704,3.6703,3.6703,0,3.6468,3.6473,3.6525,3.6544,3.655,3.6584,3.6599,3.6627,3.6631,3.6669,3.6677,3.6684,3.6715,3.6716,3.6753,3.6752,3.6803,3.6798,3.6797,3.6795,3.6827,3.6823,3.6937,3.6951,3.6857,3.6858,3.6859,0,3.6521,3.6554,3.6577,3.6596,3.6608,3.664,3.6659,3.6658,3.6678,3.6703,3.6726,3.6757,3.6781,3.6832,3.6839,3.6866,3.6859,3.6898,3.6863,3.6862,3.6856,3.6853,3.6855,3.6904,3.6905,3.6906,3.6906,0,3.6612,3.6613,3.6641,3.667,3.6694,3.6716,3.6737,3.6754,3.6754,3.6777,3.6809,3.6828,3.6865,3.6895,3.6921,3.693,3.6917,3.6918,3.6926,3.6926,3.6922,3.6922,3.6812,3.6914,3.6913,3.6913,3.6912,3.6912,3.6677,3.6704,3.6724,3.6755,3.6771,3.6791,3.6817,3.6824,3.6852,3.6882,3.688,3.6915,3.6932,3.6966,3.6978,3.7004,3.699,3.7004,3.7006,3.7009,3.7011,3.6921,3.7009,3.7009,3.7009,3.7008,3.7008,0,3.6764,3.6776,3.6806,3.6835,3.6859,3.6847,3.6869,3.689,3.6921,3.6939,3.6963,3.6999,3.7028,3.7037,3.7064,3.7083,3.7078,3.709,3.7087,3.7089,3.7023,3.7012,3.7093,3.7093,3.7093,3.7093,3.7093,3.7093,3.6813,3.6858,3.6861,3.6913,3.6924,3.6959,3.6972,3.6989,3.7003,3.7045,3.7068,3.7075,3.7088,3.7116,3.714,3.7142,3.7151,3.7165,3.7164,3.7102,3.7094,3.7085,3.7074,3.7168,3.7168,3.7227,3.7228,3.7228]},{"header":{"parameterUnit":"m.s-1","parameterCategory":1,"la1":30.2991,"la2":30.254,"lo1":-89.0895,"lo2":-89.0444,"dy":0.0017,"dx":0.0017,"nx":28,"ny":28,"refTime":"2024-12-03T03:00:00:Z","depth":0,"parameterNumber":3,"parameterNumberName":"V-component_of_WINDS"},"data":[0,0,0,0,0,0,0,0,0,0,0,0,0,0,0,0,0,0,0,0,0,0,0,0,0,0,0,0,0,0,0,0,0,0,0,0,0,0,0,0,0,0,0,0,0,0,0,0,0,0,0,0,0,0,0,0,0,0,6.1043,6.1045,0,6.1235,6.1237,6.1239,6.1232,6.1229,6.1226,6.1224,6.1415,6.1422,6.143,0,0,0,0,0,0,0,0,0,0,0,0,0,6.0662,6.0669,6.1043,6.1045,6.1047,6.1235,6.1237,6.124,6.1232,6.1229,6.1226,6.1223,6.1412,6.1421,6.143,0,0,0,0,0,0,0,0,0,0,0,0,0,6.0838,6.0671,6.1042,6.1066,6.107,6.1234,6.1237,6.1241,6.1233,6.1229,6.1225,6.1221,6.1409,6.142,6.1432,6.1582,0,0,6.1466,6.1471,0,0,0,0,0,0,0,0,6.0828,6.0852,6.106,6.1065,6.107,6.1205,6.1173,6.1355,6.1234,6.1171,6.1224,6.1219,6.1348,6.1364,6.1409,6.1591,6.1599,6.1467,6.1474,6.1479,6.1482,0,0,0,0,0,0,0,6.0816,6.0844,6.1118,6.1063,6.1069,6.1065,6.1086,6.1207,6.1279,6.1176,6.1176,6.1199,6.135,6.1398,6.1413,6.1602,6.1467,6.1477,6.1484,6.1488,6.1915,6.1919,0,0,0,0,0,0,6.0799,6.0833,6.1112,6.1124,6.0937,6.1075,6.1098,6.1166,6.1278,6.1292,6.1203,6.1198,6.138,6.14,6.142,6.1603,6.1479,6.149,6.1496,6.191,6.1916,6.1921,0,0,0,0,0,0,6.0791,6.0824,6.1105,6.0979,6.1014,6.1086,6.1162,6.1172,6.122,6.1298,6.131,6.1239,6.1378,6.1404,6.1542,6.1609,6.1495,6.1505,6.1905,6.1912,6.1918,6.197,0,0,0,0,0,0,6.078,6.0821,6.0881,6.0981,6.1021,6.1226,6.1166,6.1178,6.124,6.1237,6.1336,6.1348,6.1377,6.1525,6.1553,6.1623,6.1514,6.1899,6.1908,6.1916,6.1962,6.1977,6.199,0,0,0,0,0,6.0767,6.0887,6.0884,6.0918,6.1098,6.123,6.1253,6.1285,6.1246,6.1305,6.1355,6.1345,6.1597,6.1539,6.1571,6.1645,6.1895,6.1906,6.1916,6.1956,6.1974,6.199,0,0,0,0,0,0,6.0792,6.09,6.0899,6.1055,6.1133,6.1228,6.1304,6.1304,6.1393,6.1386,6.142,6.1443,6.158,6.1626,6.156,6.1795,6.1741,6.1758,6.1761,6.1779,6.1792,6.1778,6.1523,0,0,0,0,0,6.0816,6.0916,6.1005,6.1134,6.1173,6.1232,6.1291,6.1309,6.1391,6.1423,6.1483,6.1561,6.1658,6.1721,6.1814,6.1968,6.1989,6.2035,6.2049,6.206,6.2074,6.2157,6.2178,6.1954,6.1954,6.1954,0,0,6.0866,6.0938,6.0998,6.1141,6.1204,6.1304,6.126,6.1369,6.1443,6.1439,6.1574,6.162,6.1709,6.1855,6.1923,6.1898,6.214,6.2073,6.2081,6.2089,6.217,6.2191,6.221,6.1961,6.196,6.1959,0,0,6.1009,6.1074,6.1188,6.1252,6.1349,6.1387,6.1414,6.1509,6.154,6.1676,6.1675,6.1762,6.1928,6.1992,6.2045,6.2211,6.2204,6.224,6.2313,6.2394,6.2411,6.2427,6.2485,6.2505,6.2254,6.2254,6.2254,0,6.1058,6.1213,6.1246,6.1357,6.1418,6.142,6.1535,6.1595,6.1716,6.1757,6.1727,6.1936,6.1996,6.2156,6.2197,6.224,6.2271,6.2229,6.2406,6.2423,6.2438,6.2493,6.2515,6.2257,6.2257,6.2257,6.2256,0,6.1268,6.1375,6.1455,6.1574,6.1644,6.1756,6.1804,6.1871,6.1883,6.1923,6.206,6.2132,6.2239,6.2279,6.2291,6.2441,6.2422,6.2399,6.2345,6.2462,6.2515,6.2537,6.2263,6.2261,6.226,6.2259,0,0,6.1433,6.1569,6.1598,6.1651,6.1757,6.1839,6.1949,6.2056,6.2112,6.2194,6.2287,6.2427,6.2406,6.2467,6.2485,6.2557,6.2681,6.2525,6.2527,6.2551,6.285,6.2866,6.289,6.2678,6.2682,6.2685,6.2842,0,6.1586,6.1785,6.1818,6.1991,6.2089,6.2092,6.2188,6.2262,6.2302,6.2389,6.2432,6.253,6.2496,6.2533,6.2603,6.2651,6.2742,6.264,6.2762,6.2766,6.2739,6.2918,6.2936,6.3081,6.2863,6.2866,6.2869,0,6.1793,6.1882,6.2066,6.2157,6.2199,6.2286,6.2385,6.2469,6.2552,6.2575,6.2643,6.2653,6.2765,6.2706,6.286,6.2791,6.2842,6.2872,6.2879,6.2891,6.2824,6.2934,6.3128,6.3149,6.2902,6.2899,6.2897,0,6.1893,6.206,6.2191,6.2237,6.2347,6.2407,6.2455,6.2534,6.2596,6.2682,6.2722,6.2819,6.2872,6.2946,6.2981,6.2935,6.3132,6.3076,6.3153,6.3153,6.3195,6.3192,6.3399,6.3228,6.3228,6.3228,6.3227,0,6.2061,6.2173,6.2238,6.2319,6.2443,6.2479,6.26,6.2646,6.2716,6.2804,6.2811,6.2893,6.2934,6.3022,6.3049,6.3171,6.3195,6.3216,6.3222,6.3216,6.3213,6.325,6.324,6.3233,6.3232,6.3231,6.323,0,6.2195,6.2244,6.2387,6.2479,6.2505,6.2592,6.2671,6.2748,6.2787,6.2898,6.2925,6.2986,6.3089,6.3132,6.3257,6.3275,6.3416,6.3414,6.3389,6.339,6.3465,6.3457,6.3702,6.3736,6.3544,6.3545,6.3547,0,6.2299,6.2386,6.2488,6.2548,6.2599,6.2696,6.2759,6.2796,6.2861,6.2961,6.3025,6.3129,6.3213,6.3377,6.3431,6.3526,6.3527,6.3606,6.3541,6.3531,6.3527,6.3522,6.353,6.3618,6.362,6.3621,6.3623,0,6.2479,6.2498,6.259,6.269,6.2766,6.2846,6.2924,6.2972,6.3021,6.3093,6.3199,6.3265,6.3394,6.3495,6.3594,6.364,6.364,6.3643,6.3666,6.366,6.3641,6.3651,6.3421,6.3637,6.3636,6.3634,6.3634,6.3633,6.2601,6.2677,6.2761,6.2862,6.2925,6.2998,6.3075,6.3124,6.3214,6.3323,6.3338,6.3451,6.3529,6.3662,6.3713,6.38,6.378,6.3813,6.3821,6.3829,6.3833,6.3627,6.3818,6.3818,6.3817,6.3817,6.3817,0,6.278,6.2833,6.2927,6.3036,6.3116,6.3109,6.3195,6.3261,6.3361,6.3435,6.3519,6.364,6.3738,6.3799,6.3898,6.3956,6.3957,6.398,6.3976,6.3987,6.3846,6.3817,6.3977,6.3977,6.3977,6.3977,6.3977,6.3977,6.2882,6.3011,6.304,6.3199,6.3251,6.3364,6.3413,6.3479,6.3538,6.3674,6.3756,6.3796,6.3865,6.3968,6.4057,6.4072,6.4107,6.4132,6.4145,6.4013,6.3997,6.3981,6.3953,6.4139,6.414,6.4278,6.428,6.428]}]]